Regional Weather Roundup
Issued by NWS

Home | Current Version | Previous Version | Text Only | Print | Product List | Glossary Off
Versions: 1 2 3 4 5 6 7 8 9 10 11 12 13 14 15 16 17 18 19 20 21 22 23 24 25 26 27

000
ASUS45 KTFX 191110
RWRMT
MONTANA REGIONAL WEATHER ROUNDUP
NATIONAL WEATHER SERVICE GREAT FALLS MT
500 AM MDT THU APR 19 2018

NOTE: "FAIR" INDICATES FEW OR NO CLOUDS BELOW 12000 FEET WITH NO
SIGNIFICANT WEATHER AND/OR OBSTRUCTIONS TO VISIBILITY.

MTZ001>007-043-191200-
WEST OF THE DIVIDE

CITY           SKY/WX    TMP DP  RH WIND       PRES   REMARKS
KALISPELL      FAIR      34  27  75 N6        30.12R WCI  29
MISSOULA       FAIR      32  23  69 CALM      30.12R
BUTTE          FAIR      28  21  75 CALM      30.09S
MULLAN PASS    FAIR      31  18  58 SE8       30.06S WCI  23
ANACONDA         N/A     30  21  69 SW3       30.10S
DEER LODGE       N/A     28  23  80 CALM      30.12R
HAMILTON         N/A     30  25  80 MISG      30.11
PLAINS           N/A     31  24  75 CALM      30.13R
RONAN            N/A     32  28  86 NE7       30.13S WCI  26
$$

MTZ008-052>055-191200-
SOUTHWEST MONTANA

CITY           SKY/WX    TMP DP  RH WIND       PRES   REMARKS
BOZEMAN        FAIR      30  23  75 E3        30.10R
DILLON         FAIR      28  23  81 CALM      30.07S
ENNIS          MOCLDY    27  19  74 CALM      30.11S
W YELLOWSTONE  MOCLDY    21  18  86 CALM      30.07S
THREE FORKS      N/A     29  24  81 CALM      30.08R
TWIN BRIDGES     N/A     36  19  50 N8        30.05R WCI  30
$$

MTZ009-010-012-014-046-048-049-054-191200-
EAST SLOPES AND CENTRAL MONTANA

CITY           SKY/WX    TMP DP  RH WIND       PRES   REMARKS
CUT BANK       FAIR      27  24  89 NE6       30.15S WCI  20
GREAT FALLS    FAIR      28  24  85 SW7       30.13S WCI  21
HELENA         FAIR      35  23  61 W6        30.12R WCI  30
AUGUSTA        MOCLDY    32  26  77 N10       30.12S WCI  23
BOWMANS CRNR   MOCLDY    31  24  74 NW5       30.11R
CHOTEAU          N/A     30  25  80 NW7       30.15S WCI  23
FAIRFIELD      CLOUDY    31  26  82 NW5       30.13R
POWER          FAIR      30  27  86 N5        30.12S
RAYNESFORD     MOCLDY    39  21  48 SE9       30.13R
ULM            MOCLDY    29  26  85 CALM      30.14R
WHITE SULPHUR    N/A     28  23  80 S6        30.11R WCI  22
$$

MTZ011-013-016-021-045-047-050-051-191200-
NORTH CENTRAL MONTANA

CITY           SKY/WX    TMP DP  RH WIND       PRES   REMARKS
HAVRE          FAIR      34  32  92 E16       30.18S WCI  24
LEWISTOWN      FAIR      37  24  59 E14       30.14F WCI  28
N BAR RANCH    FAIR      32  21  64 CALM      30.20F
CHINOOK          N/A     34  34 100 E12       30.23S WCI  25
GEYSER         MOCLDY    30  23  77 CALM      30.14S
GRASS RANGE    FAIR      32  25  75 W5        30.16S
STANFORD       FAIR      39  21  48 SE14      30.14S WCI  31
$$

MTZ017>020-022>027-061-062-191200-
NORTHEAST MONTANA

CITY           SKY/WX    TMP DP  RH WIND       PRES   REMARKS
GLASGOW        FOG       32  30  92 E17       30.30S VSB 1/2 WCI  21
GLENDIVE       MIX PCPN  31  31 100 NE8       30.32R VSB 1/4 WCI  23
JORDAN           N/A     33  30  88 E7        30.25S WCI  27
MALTA          CLEAR     36  34  93 NE9       30.26R WCI  29
SIDNEY         FOG       33  32  96 E6        30.36R VSB 1/2 WCI  28
WOLF POINT     FOG       33  31  92 E12       30.36R VSB 1/2 WCI  24
PLENTYWOOD       N/A     28  28 100 CALM      30.37R VSB 1/4
POPLAR           N/A     32  30  93 E7        30.38R VSB 1/2 WCI  26
SCOBEY           N/A     28  21  75 CALM      30.30R VSB 0
$$

MTZ028>42-056>058-191200-
SOUTHCENTRAL AND SOUTHEAST MONTANA

CITY           SKY/WX    TMP DP  RH WIND       PRES   REMARKS
BAKER          FAIR      27  27 100 SE6       30.30S WCI  20
BILLINGS       FAIR      35  26  69 NE8       30.14R WCI  29
LIVINGSTON     FAIR      30  24  78 CALM      30.12R
MILES CITY     FAIR      33  30  88 NE8       30.26S WCI  26
BIG TIMBER     PTCLDY    36  23  60 NE6       30.15R WCI  31
EKALAKA          N/A     35  30  82 SE8       30.22R WCI  28
FORSYTH          N/A     36  34  93 E8        30.24R WCI  29
HARLOWTON      MOCLDY    32  24  72 CALM      30.16R
LAUREL           N/A     37  25  60 N12       30.15R WCI  30
ROUNDUP          N/A     36  23  59 NE1       30.07
$$

REGIONAL REPORTS...DAKOTAS

CITY           SKY/WX    TMP DP  RH WIND       PRES   REMARKS
WILLISTON      FOG       33  33 100 NE7       30.37S VSB 3/4 WCI  27
MINOT          CLOUDY    35  33  92 W8        30.37R FOG     WCI  29
DICKINSON      SNOW      26  25  96 CALM      30.32R VSB<1/4
BEACH          FAIR      27  27 100 S3        30.35R
CROSBY         FOG       30  30 100 CALM      30.38S VSB 1/2
TIOGA          FOG       30  30 100 CALM      30.39R VSB 1/4
WATFORD CITY   FOG       28  30 100 CALM      30.35S VSB 1/4
BISMARCK       FAIR      27  26  96 SW3       30.39R
GRAND FORKS    MOCLDY    31  28  89 CALM      30.35S
FARGO          FAIR      29  27  92 CALM      30.36R
BUFFALO SD       N/A     32  28  85 E8        30.24R WCI  25
RAPID CITY     FAIR      29  28  96 CALM      30.33R
$$

REGIONAL REPORTS...WYOMING/IDAHO/WASHINGTON

CITY           SKY/WX    TMP DP  RH WIND       PRES   REMARKS
GILLETTE       FAIR      36  26  67 S16       30.23S WCI  26
SHERIDAN       FAIR      37  25  61 S10       30.17S WCI  30
BUFFALO WY     FAIR      33  21  61 SE6       30.21R WCI  28
CODY           FAIR      33  24  69 CALM      30.14R
YELLOWSTONE LA   N/A     19  13  77 CALM      30.11S
IDAHO FALLS    FAIR      35  27  72 N8        29.98S WCI  29
SALMON         FAIR      35  28  75 E3        30.06R
BOISE          FAIR      44  34  67 W5        29.91S
SPOKANE        FAIR      36  29  75 N5        30.11S
$$

REGIONAL REPORTS...ALBERTA

CITY           SKY/WX    TMP DP  RH WIND       PRES   REMARKS
CALGARY        PTCLDY    28  21  74 CALM      30.15S
CARDSTON         N/A     27  25  93 S6          N/A  WCI  20
EDMONTON       CLEAR     30  16  55 S3        30.15S
FORT MCMURRAY  CLEAR     28  23  80 S5        30.11R
HIGH LEVEL     CLEAR     30  21  69 S8        29.90S WCI  23
LETHBRIDGE     CLEAR     30  27  86 S3        30.17R
LLOYDMINSTER   CLEAR     30  28  93 S7        30.21R WCI  23
MEDICINE HAT   CLEAR     39  30  70 SE3       30.20S
PEACE RIVER    PTCLDY    28  21  74 S9        30.04S WCI  20
PINCHER CREEK  MOCLDY    27  23  86 W8        30.15S WCI  18
WATERTON GATE    N/A     28  21  74 SW7         N/A  WCI  21
$$

REGIONAL REPORTS...SASKATCHEWAN

CITY           SKY/WX    TMP DP  RH WIND       PRES   REMARKS
CORONACH         N/A     27  25  93 SE6         N/A  WCI  20
CYPRESS HILLS    N/A     30  25  80 SE8         N/A  WCI  23
ESTEVAN        FOG       30  30 100 SW3       30.38R VSB 1/4
MOOSE JAW        N/A     25  23  93 SE7         N/A  WCI  17
PRINCE ALBERT  PTCLDY    25  23  93 VRB2      30.32S
REGINA         FOG       23  21  93 SE3       30.36  VSB 1/4
ROCKGLEN         N/A     28  28 100 S8          N/A  WCI  20
SASKATOON      PTCLDY    32  27  80 S5        30.31S
SWIFT CURRENT  CLEAR     30  27  86 SE10      30.26S WCI  21
VAL MARIE        N/A     28  25  86 E3          N/A
$$




USA.gov is the U.S. government's official web portal to all federal, state and local government web resources and services.